Terminal Aerodrome Forecast
Issued by NWS

Home | Current Version | Previous Version | Text Only | Print | Product List | Glossary On
Versions: 1 2 3 4 5 6 7 8 9 10 11 12 13 14 15 16 17 18 19 20 21 22 23 24 25 26 27 28 29 30 31 32 33 34 35 36 37 38 39 40 41 42 43 44
000
FTUS43 KDMX 191728
TAFMCW
TAF
KMCW 191728Z 1918/2018 17008KT 6SM BR SCT008 OVC028
      TEMPO 1918/1922 5SM BR BKN008
     FM192200 17008KT P6SM OVC012
     FM200800 16007KT 5SM BR OVC008=

USA.gov is the U.S. government's official web portal to all federal, state and local government web resources and services.